Regional Weather Roundup
Issued by NWS Little Rock, AR

Home | Current Version | Previous Version | Graphics & Text | Print | Product List | Glossary On
Versions: 1 2 3 4 5 6 7 8 9 10 11 12 13 14 15 16 17 18 19 20 21 22 23 24 25 26 27 28
000
ASUS44 KLZK 310605
RWRLZK

WEATHER ROUNDUP FOR ARKANSAS
NATIONAL WEATHER SERVICE LITTLE ROCK AR
100 AM CDT FRI OCT 31 2014

NOTE: "FAIR" INDICATES FEW OR NO CLOUDS BELOW 12,000 FEET WITH NO
SIGNIFICANT WEATHER AND/OR OBSTRUCTIONS TO VISIBILITY.

ARZ001-003-010-029-310700-
NORTHWEST ARKANSAS

CITY           SKY/WX    TMP DP  RH WIND       PRES   REMARKS
FAYETTEVILLE   CLEAR     51  39  63 N5        30.15R
6HR MIN TEMP:  45; 6HR MAX TEMP:  60;

FORT SMITH     CLEAR     50  43  77 N3        30.13R
6HR MIN TEMP:  49; 6HR MAX TEMP:  67;

HARRISON       CLEAR     52  40  63 NW7       30.10S
6HR MIN TEMP:  52; 6HR MAX TEMP:  60;

BENTONVILLE    CLEAR     54  37  54 N9        30.15R
6HR MIN TEMP:  54; 6HR MAX TEMP:  63;

ROGERS         CLEAR     53  40  61 N7        30.15R
6HR MIN TEMP:  53; 6HR MAX TEMP:  61;

SILOAM SPGS    CLEAR     46  36  66 N7        30.17R
6HR MIN TEMP:  46; 6HR MAX TEMP:  61;

HIGHFILL       CLEAR     51  40  65 N9        30.15R
6HR MIN TEMP:  51; 6HR MAX TEMP:  61;

$$

ARZ004-005-016-310700-
NORTH CENTRAL ARKANSAS

CITY           SKY/WX    TMP DP  RH WIND       PRES   REMARKS
BATESVILLE     CLEAR     52  45  76 W5        30.03R
6HR MIN TEMP:  52; 6HR MAX TEMP:  61;

FLIPPIN        CLEAR     55  37  50 NW7       30.07S
6HR MIN TEMP:  54; 6HR MAX TEMP:  63;

MTN HOME       CLEAR     52  41  66 VRB5      30.06S
6HR MIN TEMP:  50; 6HR MAX TEMP:  64;

$$

ARZ040-041-310700-
WEST CENTRAL ARKANSAS

CITY           SKY/WX    TMP DP  RH WIND       PRES   REMARKS
MENA           CLEAR     59  41  51 CALM      30.12S
MOUNT IDA      CLEAR     49  46  90 CALM      30.07S
6HR MIN TEMP:  48; 6HR MAX TEMP:  58;

$$

ARZ009-017-025-026-028-310700-
NORTHEAST ARKANSAS

CITY           SKY/WX    TMP DP  RH WIND       PRES   REMARKS
CORNING        FAIR      48  46  93 N7        30.01S
JONESBORO      CLEAR     49  48  97 CALM      29.99S
6HR MIN TEMP:  49; 6HR MAX TEMP:  62;

NEWPORT        CLEAR     53  47  80 W8        30.02S
6HR MIN TEMP:  52; 6HR MAX TEMP:  60;

WALNUT RIDGE   CLEAR     48  43  81 NW8       30.01R
6HR MIN TEMP:  48; 6HR MAX TEMP:  61;

BLYTHEVILLE    CLEAR     54  49  83 CALM      29.99S
6HR MIN TEMP:  54; 6HR MAX TEMP:  60; 6HR PCP:  0.08;

$$

ARZ022-023-033-042-044-310700-
CENTRAL ARKANSAS

CITY           SKY/WX    TMP DP  RH WIND       PRES   REMARKS
LITTLE ROCK    CLEAR     54  47  77 NW8       30.05S
6HR MIN TEMP:  52; 6HR MAX TEMP:  63;

N LITTLE ROCK    N/A     56  50  79 W5        30.05S
6HR MIN TEMP:  53; 6HR MAX TEMP:  61;

JACKSONVILLE   CLEAR     52  47  84 W6        30.05R
6HR MIN TEMP:  49; 6HR MAX TEMP:  65;

SEARCY         CLEAR     51  47  86 NW3       30.04S
6HR MIN TEMP:  47; 6HR MAX TEMP:  55;

HOT SPRINGS    CLEAR     50  47  89 W3        30.08S
6HR MIN TEMP:  50; 6HR MAX TEMP:  63;

RUSSELLVILLE   CLEAR     48  46  93 CALM      30.08R
6HR MIN TEMP:  47; 6HR MAX TEMP:  57;

$$

ARZ036-310700-
EAST ARKANSAS

CITY           SKY/WX    TMP DP  RH WIND       PRES   REMARKS
WEST MEMPHIS   CLEAR     56  50  80 VRB5      29.98S
6HR MIN TEMP:  54; 6HR MAX TEMP:  61;

$$

ARZ050-053-066-070-073-310700-
SOUTHWEST ARKANSAS

CITY           SKY/WX    TMP DP  RH WIND       PRES   REMARKS
ARKADELPHIA    FAIR      49  49 100 CALM      30.07F
6HR MIN TEMP:  49; 6HR MAX TEMP:  58;

CAMDEN         FOG       46  45  93 CALM      30.07S VSB 1
TEXARKANA      CLEAR     58  46  64 NW7       30.10S
6HR MIN TEMP:  54; 6HR MAX TEMP:  65;

DE QUEEN       FOG       46  45  96 CALM      30.10S VSB 3/4
6HR MIN TEMP:  46; 6HR MAX TEMP:  58;

$$

ARZ056-057-069-310700-
SOUTHEAST ARKANSAS

CITY           SKY/WX    TMP DP  RH WIND       PRES   REMARKS
PINE BLUFF     CLEAR     57  47  69 W10       30.04S
6HR MIN TEMP:  56; 6HR MAX TEMP:  62;

STUTTGART      CLEAR     55  48  76 W10       30.03S
6HR MIN TEMP:  54; 6HR MAX TEMP:  63;

MONTICELLO     CLEAR     58  48  69 W7        30.03F
6HR MIN TEMP:  56; 6HR MAX TEMP:  62;


$$





USA.gov is the U.S. government's official web portal to all federal, state and local government web resources and services.